Butte, MT

6:00 AM MST on December 03, 2016 (GMT -0700)
Mooney

Weather History for KBTM - December, 2014

Change the Weather History Date:

Sunday, December 14, 2014

  Actual Average Record
Temperature  
Mean Temperature 22 °F 17 °F  
Max Temperature 28 °F 29 °F 55 °F (1924)
Min Temperature 16 °F 5 °F -26 °F (1967)
Degree Days  
Heating Degree Days 43 48  
Month to date heating degree days 470 657  
Since 1 July heating degree days 2800 3147  
Cooling Degree Days 0 0  
Month to date cooling degree days 0 0  
Year to date cooling degree days 78 81  
Moisture  
Dew Point 21 °F    
Average Humidity 84    
Maximum Humidity 92    
Minimum Humidity 75    
Precipitation  
Precipitation 0.01 in 0.01 in 0.40 in (1915)
Month to date precipitation 0.19 0.23  
Year to date precipitation 14.46 12.49  
Sea Level Pressure  
Sea Level Pressure 30.18 in    
Wind  
Wind Speed 5 mph (NW)    
Max Wind Speed 13 mph    
Max Gust Speed 16 mph    
Visibility 6 miles    
Events Snow    
T = Trace of Precipitation, MM = Missing Value Source: NWS Daily Summary

Daily Weather History Graph

Daily Weather History Graph

Search for Another Location

Airport or City:

Trip Planner

Search our weather history database for the weather conditions in past years. The results will help you decide how hot, cold, wet, or windy it might be!

Date:

Astronomy

Dec. 14, 2014 Rise Set
Actual Time 8:04 AM MST 4:45 PM MST
Civil Twilight 7:29 AM MST 5:19 PM MST
Nautical Twilight 6:51 AM MST 5:57 PM MST
Astronomical Twilight 6:15 AM MST 6:33 PM MST
Moon 12:08 AM MST (12/14) 12:37 PM MST (12/14)
Length of Visible Light 9h 50m
Length of Day
8h 40m
Waning Gibbous, 48% of the Moon is Illuminated
Dec 14
Waning Gibbous
Dec 21
New
Dec 28
First Quarter
Jan 4
Full
Jan 13
Last Quarter

Hourly Weather History & Observations

Time (MST) Temp. Windchill Dew Point Humidity Pressure Visibility Wind Dir Wind Speed Gust Speed Precip Events Conditions
12:53 AM 28.0 °F - 24.1 °F 85% 30.15 in 10.0 mi Calm Calm - N/A   Overcast
1:53 AM 28.0 °F - 24.1 °F 85% 30.15 in 10.0 mi Calm Calm - N/A   Overcast
2:53 AM 27.0 °F 21.6 °F 24.1 °F 89% 30.18 in 10.0 mi South 4.6 mph - N/A   Overcast
3:53 AM 27.0 °F - 23.0 °F 85% 30.17 in 10.0 mi Calm Calm - 0.00 in   Overcast
4:53 AM 27.0 °F 20.5 °F 23.0 °F 85% 30.18 in 10.0 mi NNW 5.8 mph - N/A   Overcast
5:45 AM 27.0 °F 18.0 °F 23.0 °F 85% 30.08 in 10.0 mi NW 9.2 mph - N/A   Overcast
5:53 AM 27.0 °F 17.3 °F 23.0 °F 85% 30.19 in 10.0 mi NW 10.4 mph - N/A   Overcast
6:51 AM 26.6 °F 17.5 °F 23.0 °F 86% 30.08 in 10.0 mi NW 9.2 mph - N/A   Overcast
6:53 AM 27.0 °F 18.0 °F 21.9 °F 81% 30.19 in 10.0 mi NW 9.2 mph - N/A   Overcast
7:53 AM 27.0 °F 20.5 °F 23.0 °F 85% 30.20 in 10.0 mi WNW 5.8 mph - N/A   Overcast
8:53 AM 27.0 °F 18.7 °F 23.0 °F 85% 30.22 in 7.0 mi WNW 8.1 mph - 0.00 in Snow Light Snow
9:07 AM 27.0 °F 20.5 °F 23.0 °F 85% 30.11 in 8.0 mi WNW 5.8 mph - 0.00 in Snow Light Snow
9:17 AM 26.1 °F 19.4 °F 23.0 °F 88% 30.11 in 2.5 mi NW 5.8 mph - 0.00 in Snow Light Snow
9:23 AM 26.1 °F 19.4 °F 23.0 °F 88% 30.12 in 1.8 mi WNW 5.8 mph - 0.00 in Snow Light Snow
9:53 AM 27.0 °F 20.5 °F 23.0 °F 85% 30.23 in 1.2 mi NNW 5.8 mph - 0.00 in Snow Light Snow
10:21 AM 27.0 °F 21.6 °F 24.1 °F 89% 30.13 in 3.0 mi WNW 4.6 mph - 0.00 in Snow Light Snow
10:31 AM 27.0 °F 20.5 °F 24.1 °F 89% 30.13 in 4.0 mi WNW 5.8 mph - 0.00 in Snow Light Snow
10:53 AM 27.0 °F 23.0 °F 24.1 °F 89% 30.24 in 6.0 mi Variable 3.5 mph - 0.00 in Snow Light Snow
11:09 AM 28.0 °F - 24.1 °F 85% 30.13 in 1.8 mi Calm Calm - 0.00 in Snow Light Snow
11:16 AM 27.0 °F 23.0 °F 24.1 °F 89% 30.13 in 0.8 mi WNW 3.5 mph - 0.00 in Snow Light Snow
11:24 AM 27.0 °F 23.0 °F 24.1 °F 89% 30.12 in 1.0 mi West 3.5 mph - 0.00 in Snow Light Snow
11:31 AM 27.0 °F 21.6 °F 24.1 °F 89% 30.13 in 2.5 mi West 4.6 mph - 0.00 in Snow Light Snow
11:38 AM 27.0 °F 21.6 °F 24.1 °F 89% 30.12 in 5.0 mi WNW 4.6 mph - 0.00 in Snow Light Snow
11:46 AM 27.0 °F 21.6 °F 24.1 °F 89% 30.12 in 6.0 mi WNW 4.6 mph - 0.00 in Snow Light Snow
11:53 AM 28.0 °F 24.2 °F 24.1 °F 85% 30.23 in 9.0 mi WNW 3.5 mph - 0.00 in   Overcast
12:20 PM 28.0 °F 18.1 °F 19.0 °F 69% 30.12 in 9.0 mi North 11.5 mph - N/A   Overcast
12:45 PM 27.0 °F 18.0 °F 19.9 °F 75% 30.12 in 6.0 mi North 9.2 mph - 0.00 in Snow Light Snow
12:53 PM 27.0 °F 18.0 °F 19.9 °F 75% 30.23 in 9.0 mi NNE 9.2 mph - 0.00 in   Overcast
1:53 PM 27.0 °F 17.3 °F 19.9 °F 75% 30.22 in 10.0 mi North 10.4 mph - N/A   Overcast
2:53 PM 26.1 °F 18.4 °F 21.0 °F 81% 30.23 in 8.0 mi North 6.9 mph - N/A   Overcast
3:12 PM 27.0 °F 21.6 °F 21.9 °F 81% 30.12 in 3.0 mi NNW 4.6 mph - 0.00 in Snow Light Snow
3:22 PM 26.6 °F 22.6 °F 21.2 °F 80% 30.12 in 4.0 mi North 3.5 mph - N/A Snow Light Snow
3:32 PM 26.1 °F 21.9 °F 21.0 °F 81% 30.12 in 5.0 mi North 3.5 mph - 0.00 in Snow Light Snow
3:39 PM 26.1 °F 21.9 °F 19.9 °F 78% 30.12 in 8.0 mi North 3.5 mph - 0.00 in   Overcast
3:53 PM 26.1 °F 20.5 °F 19.9 °F 78% 30.25 in 8.0 mi NNW 4.6 mph - 0.00 in   Overcast
4:28 PM 26.1 °F 18.4 °F 21.9 °F 84% 30.13 in 3.0 mi NW 6.9 mph - 0.00 in Snow Light Snow
4:33 PM 25.0 °F 17.1 °F 21.9 °F 88% 30.13 in 2.5 mi NW 6.9 mph - 0.00 in Snow Light Snow
4:53 PM 24.1 °F 16.0 °F 21.0 °F 88% 30.26 in 3.0 mi NW 6.9 mph - 0.01 in Snow Light Snow
5:01 PM 24.1 °F 16.0 °F 21.0 °F 88% 30.13 in 2.5 mi NW 6.9 mph - 0.00 in Snow Light Snow
5:09 PM 24.1 °F 16.0 °F 21.0 °F 88% 30.13 in 5.0 mi WNW 6.9 mph - 0.00 in Snow Light Snow
5:53 PM 24.1 °F 15.2 °F 19.9 °F 84% 30.27 in 6.0 mi WNW 8.1 mph - 0.00 in Snow Light Snow
6:53 PM 23.0 °F 13.9 °F 19.0 °F 85% 30.29 in 8.0 mi WNW 8.1 mph - 0.00 in   Overcast
7:53 PM 21.9 °F 14.5 °F 19.0 °F 89% 30.30 in 4.0 mi West 5.8 mph - N/A   Overcast
8:53 PM 21.0 °F - 18.0 °F 88% 30.31 in 8.0 mi Calm Calm - N/A   Overcast
9:29 PM 21.0 °F 16.2 °F 18.0 °F 88% 30.17 in 6.0 mi ENE 3.5 mph - 0.00 in Snow Light Snow
9:49 PM 21.2 °F 16.4 °F 17.6 °F 86% 30.17 in 6.0 mi East 3.5 mph - 0.00 in   Overcast
9:53 PM 21.0 °F - 18.0 °F 88% 30.32 in 5.0 mi Calm Calm - 0.00 in   Overcast
10:20 PM 19.9 °F - 18.0 °F 92% 30.18 in 7.0 mi Calm Calm - N/A   Overcast
10:53 PM 19.9 °F - 18.0 °F 92% 30.32 in 3.0 mi Calm Calm - 0.00 in Snow Light Snow
11:51 PM 17.6 °F - 15.8 °F 93% 30.18 in 6.0 mi Calm Calm - 0.00 in   Overcast
11:53 PM 16.0 °F - 15.1 °F 96% 30.35 in 6.0 mi Calm Calm - 0.00 in   Overcast